This is the latest recevied weather packets stored in our database for station/object N3SBK. If no packets are shown the sender has not sent any weather packets the latest 10 day(s).
| Time | Temp. | Humidity | Pressure | Rain* | Wind** | Luminosity | Snow |
|---|---|---|---|---|---|---|---|
| 1787425772 | 29.44° C | 53% | 1003.9 hPa | 0 mm | - | 602 W/m² | - |
| 1787425469 | 29.44° C | 56% | 1003.9 hPa | 0 mm | - | 591 W/m² | - |
| 1787425164 | 28.89° C | 57% | 1004.1 hPa | 0 mm | - | 616 W/m² | - |
| 1787424864 | 28.33° C | 56% | 1004 hPa | 0 mm | - | 617 W/m² | - |
| 1787424563 | 28.33° C | 57% | 1004.3 hPa | 0 mm | - | 612 W/m² | - |
| 1787424259 | 28.33° C | 57% | 1004.4 hPa | 0 mm | - | 618 W/m² | - |
| 1787423954 | 27.78° C | 61% | 1004.4 hPa | 0 mm | - | 639 W/m² | - |
| 1787423651 | 26.67° C | 68% | 1004.5 hPa | 0 mm | - | 685 W/m² | - |
| 1787423346 | 26.67° C | 65% | 1004.7 hPa | 0 mm | - | 724 W/m² | - |
| 1787423042 | 26.67° C | 63% | 1004.6 hPa | 0 mm | - | 158 W/m² | - |
| 1787422737 | 26.67° C | 64% | 1004.8 hPa | 0 mm | - | 703 W/m² | - |
| 1787422434 | 27.78° C | 64% | 1005 hPa | 0 mm | - | 125 W/m² | - |
| 1787422129 | 27.78° C | 61% | 1005.2 hPa | 0 mm | - | 157 W/m² | - |
| 1787421826 | 27.78° C | 58% | 1005.3 hPa | 0 mm | - | 705 W/m² | - |
| 1787421525 | 27.22° C | 64% | 1005.2 hPa | 0 mm | - | 721 W/m² | - |
| 1787421221 | 27.22° C | 61% | 1005.2 hPa | 0 mm | - | 182 W/m² | - |
| 1787420916 | 27.78° C | 62% | 1005.4 hPa | 0 mm | - | 682 W/m² | - |
| 1787420612 | 27.22° C | 63% | 1005.5 hPa | 0 mm | - | 681 W/m² | - |
| 1787420308 | 26.67° C | 71% | 1005.4 hPa | 0 mm | - | 695 W/m² | - |
| 1787420004 | 26.11° C | 70% | 1005.8 hPa | 0 mm | - | 765 W/m² | - |
| 1787419701 | 26.11° C | 68% | 1005.6 hPa | 0 mm | - | 143 W/m² | - |
| 1787419401 | 25.56° C | 66% | 1005.8 hPa | 0 mm | - | 701 W/m² | - |
| 1787419097 | 25.56° C | 70% | 1005.9 hPa | 0 mm | - | 167 W/m² | - |
| 1787418792 | 25° C | 71% | 1005.9 hPa | 0 mm | - | 118 W/m² | - |
| 1787418488 | 23.89° C | 78% | 1006 hPa | 0 mm | - | 547 W/m² | - |
* Rain latest hour (hover to see other rain measurements)
** Current wind speed in m/s (hover to see current wind gust speed)